Weather in Jelgava

Latvia     56°39′08″N   23°43′28″E
temp.,
°C
wind,
m/s
gust,
m/s
humid.,
%
clouds,
%
prec.,
mm/h
press.,
hPa
HPBL,
m
13 august, sat
sat1300:00+16e01765 0.0 102411
03:00+15sse11825 0.0 102411
06:00+14sse11835 0.0 102310
09:00+21sse11616 0.0 1023231
12:00+27e114169 0.0 1023977
15:00+29ne223488 0.0 10211751
18:00+25nne45465 0.0 1021471
21:00+19nne25700 0.0 102094
14 august, sun
sun1400:00+17ne22755 0.0 102017
03:00+16ne11795 0.0 102011
06:00+15e118443 0.0 101911
09:00+21ese236058 0.0 1019272
12:00+27e23415 0.0 10181211
15:00+29ese3434100 0.0 10171975
18:00+28ene243898 0.0 10161576
21:00+21ne227128 0.0 101628
15 august, mon
mon1500:00+20e2664100 0.0 1016110
03:00+19e2771100 0.0 1015169
06:00+18ese2690100 0.0 1015142
09:00+22se486794 0.0 1015377
12:00+27se575066 0.0 1015931
15:00+30se464177 0.0 10141585
18:00+29se574661 0.0 10131677
21:00+24se3106754 0.1 1013411
16 august, tue
tue1600:00+19ese279173 0.4 1014136
03:00+19se2993100 0.4 1014183
06:00+18se2396100 0.0 101453
09:00+22ese3678100 0.0 1014237
12:00+29ese474597 0.0 1013928
15:00+32se4735100 0.0 10131467
18:00+30ese364251 0.0 10131051
21:00+25se396428 0.0 1013314
17 august, wed
wed1700:00+22se3127661 0.0 1013356
03:00+20se311795 0.0 1014336
06:00+18se39855 0.0 1014228
09:00+23sse486170 0.1 1015404
12:00+29sse58377 0.0 10151181
15:00+31sse56344 0.0 10151626
18:00+30sse45365 0.0 10141609
21:00+23se24615 0.0 101565